Weather History for Snyder, TX

Change the Weather History Date:

Tuesday, June 25, 2013

  Actual Average Record
Temperature  
Mean Temperature 86 °F -  
Max Temperature 99 °F 92 °F 109 °F (2011)
Min Temperature 74 °F 67 °F 54 °F (1940)
Cooling Degree Days 22    
Growing Degree Days 36 (Base 50)    
Moisture  
Dew Point 66 °F    
Average Humidity 53    
Maximum Humidity 81    
Minimum Humidity 31    
Precipitation  
Precipitation 0.00 in - - ()
Sea Level Pressure  
Sea Level Pressure 29.92 in    
Wind  
Wind Speed 12 mph (SSE)    
Max Wind Speed 21 mph    
Max Gust Speed 26 mph    
Visibility 10 miles    
Events Thunderstorm    
Averages and records for this station are not official NWS values.
T = Trace of Precipitation, MM = Missing Value Source: NWS Daily Summary

Daily Weather History Graph

Daily Weather History Graph

Search for Another Location

Airport:

Trip Planner

Search our weather history database for the weather conditions in past years. The results will help you decide how hot, cold, wet, or windy it might be!

Date:

Astronomy

Jun. 25, 2013 Rise Set
Actual Time 6:37 AM CDT 8:55 PM CDT
Civil Twilight 6:08 AM CDT 9:24 PM CDT
Nautical Twilight 5:33 AM CDT 9:59 PM CDT
Astronomical Twilight 4:55 AM CDT 10:37 PM CDT
Moon 10:53 PM CDT (6/25) 9:10 AM CDT (6/25)
Length of Visible Light 15h 15m
Length of Day
14h 17m
Waning Gibbous, 92% of the Moon is Illuminated
Jun 25
Waning Gibbous
Jun 29
Last Quarter
Jul 8
New
Jul 15
First Quarter
Jul 22
Full

Hourly Weather History & Observations

Time (CDT) Temp. Heat Index Dew Point Humidity Pressure Visibility Wind Dir Wind Speed Gust Speed Precip Events Conditions
12:15 AM 79.7 °F - 61.9 °F 54% 29.96 in 10.0 mi SSE 10.4 mph - N/A   Clear
12:35 AM 79.7 °F - 62.1 °F 55% 29.96 in 10.0 mi SSE 9.2 mph - N/A   Clear
12:55 AM 79.7 °F - 62.8 °F 56% 29.96 in 10.0 mi SSE 9.2 mph - N/A   Clear
1:15 AM 79.7 °F - 63.1 °F 57% 29.96 in 10.0 mi SSE 9.2 mph - N/A   Clear
1:35 AM 78.3 °F - 62.4 °F 58% 29.95 in 10.0 mi SSE 9.2 mph - N/A   Clear
1:55 AM 77.0 °F - 62.1 °F 60% 29.95 in 10.0 mi SSE 9.2 mph - N/A   Clear
2:15 AM 77.0 °F - 62.6 °F 61% 29.95 in 10.0 mi SSE 9.2 mph - N/A   Clear
2:35 AM 77.0 °F - 62.2 °F 60% 29.95 in 10.0 mi SSE 10.4 mph - N/A   Clear
2:55 AM 77.0 °F - 62.2 °F 60% 29.95 in 10.0 mi SSE 10.4 mph - N/A   Clear
3:15 AM 77.0 °F - 62.8 °F 61% 29.95 in 10.0 mi SSE 10.4 mph - N/A   Clear
3:35 AM 77.0 °F - 63.1 °F 62% 29.95 in 10.0 mi SSE 12.7 mph - N/A   Clear
3:55 AM 77.0 °F - 64.0 °F 64% 29.95 in 10.0 mi SSE 12.7 mph 17.3 mph N/A   Clear
4:15 AM 77.0 °F - 65.1 °F 67% 29.94 in 10.0 mi SSE 10.4 mph 17.3 mph N/A   Clear
4:35 AM 76.5 °F - 65.7 °F 69% 29.94 in 10.0 mi SSE 12.7 mph - N/A   Clear
4:55 AM 75.2 °F - 65.3 °F 71% 29.94 in 10.0 mi SSE 12.7 mph 17.3 mph N/A   Clear
5:15 AM 74.5 °F - 65.5 °F 73% 29.94 in 10.0 mi SSE 12.7 mph - N/A   Clear
5:35 AM 74.5 °F - 66.0 °F 75% 29.93 in 10.0 mi SSE 12.7 mph - N/A   Clear
5:55 AM 74.5 °F - 66.6 °F 76% 29.94 in 10.0 mi SSE 12.7 mph 17.3 mph N/A   Clear
6:15 AM 74.5 °F - 66.9 °F 77% 29.95 in 10.0 mi South 11.5 mph 17.3 mph N/A   Clear
6:35 AM 74.5 °F - 67.5 °F 79% 29.95 in 10.0 mi South 12.7 mph - N/A   Clear
6:55 AM 74.5 °F - 68.0 °F 80% 29.95 in 10.0 mi South 16.1 mph - N/A   Clear
7:15 AM 74.5 °F - 68.2 °F 81% 29.95 in 7.0 mi SSE 12.7 mph - N/A   Clear
7:35 AM 74.5 °F - 68.2 °F 81% 29.96 in 7.0 mi SSE 15.0 mph - N/A   Mostly Cloudy
7:55 AM 75.6 °F - 68.9 °F 80% 29.97 in 7.0 mi South 16.1 mph 24.2 mph N/A   Overcast
8:15 AM 77.0 °F - 70.0 °F 79% 29.97 in 7.0 mi South 17.3 mph 24.2 mph N/A   Overcast
8:35 AM 77.0 °F - 69.4 °F 77% 29.97 in 10.0 mi South 17.3 mph 23.0 mph N/A   Mostly Cloudy
8:55 AM 77.0 °F - 68.9 °F 76% 29.97 in 7.0 mi South 19.6 mph 24.2 mph N/A   Scattered Clouds
9:15 AM 78.1 °F - 69.1 °F 74% 29.97 in 7.0 mi South 18.4 mph 26.5 mph N/A   Scattered Clouds
9:35 AM 79.7 °F - 69.3 °F 70% 29.97 in 7.0 mi South 20.7 mph 26.5 mph N/A   Scattered Clouds
9:55 AM 80.2 °F 83.1 °F 68.9 °F 68% 29.97 in 10.0 mi South 16.1 mph 24.2 mph N/A   Clear
10:15 AM 81.0 °F 83.9 °F 68.5 °F 66% 29.97 in 10.0 mi South 18.4 mph 26.5 mph N/A   Clear
10:35 AM 82.0 °F 85.3 °F 68.7 °F 64% 29.96 in 10.0 mi SSE 19.6 mph - N/A   Clear
10:55 AM 82.6 °F 85.7 °F 68.5 °F 62% 29.96 in 10.0 mi South 17.3 mph 25.3 mph N/A   Clear
11:15 AM 83.5 °F 86.9 °F 68.5 °F 61% 29.96 in 10.0 mi SSE 17.3 mph 25.3 mph N/A   Clear
11:35 AM 86.0 °F 90.4 °F 69.6 °F 58% 29.96 in 7.0 mi South 19.6 mph 26.5 mph N/A   Clear
11:55 AM 87.8 °F 93.0 °F 70.3 °F 56% 29.95 in 10.0 mi South 17.3 mph 24.2 mph N/A   Clear
12:15 PM 89.6 °F 95.7 °F 70.9 °F 54% 29.95 in 10.0 mi South 17.3 mph 25.3 mph N/A   Clear
12:35 PM 89.6 °F 94.7 °F 69.6 °F 52% 29.95 in 10.0 mi South 18.4 mph 23.0 mph N/A   Clear
12:55 PM 89.8 °F 93.8 °F 68.4 °F 49% 29.94 in 10.0 mi SSW 16.1 mph 24.2 mph N/A   Clear
1:15 PM 92.5 °F 97.4 °F 69.1 °F 46% 29.93 in 10.0 mi SSW 16.1 mph 24.2 mph N/A   Clear
1:35 PM 93.7 °F 99.3 °F 69.4 °F 45% 29.93 in 10.0 mi South 13.8 mph 19.6 mph N/A   Clear
1:55 PM 94.6 °F 100.0 °F 69.1 °F 43% 29.93 in 10.0 mi SSE 10.4 mph 20.7 mph N/A   Clear
2:15 PM 94.6 °F 99.4 °F 68.2 °F 42% 29.93 in 10.0 mi South 12.7 mph 18.4 mph N/A   Clear
2:35 PM 94.8 °F 98.7 °F 66.7 °F 40% 29.92 in 10.0 mi SSW 9.2 mph - N/A   Clear
2:55 PM 95.9 °F 100.1 °F 66.9 °F 39% 29.91 in 10.0 mi South 11.5 mph 16.1 mph N/A   Clear
3:15 PM 97.2 °F 101.3 °F 66.9 °F 37% 29.91 in 10.0 mi South 11.5 mph 19.6 mph N/A   Clear
3:35 PM 97.2 °F 100.7 °F 66.0 °F 36% 29.90 in 10.0 mi SSE 11.5 mph 17.3 mph N/A   Clear
3:55 PM 97.3 °F 100.5 °F 65.3 °F 35% 29.89 in 10.0 mi South 5.8 mph - N/A   Clear
4:15 PM 97.7 °F 100.6 °F 65.1 °F 34% 29.89 in 10.0 mi South 8.1 mph 19.6 mph N/A   Clear
4:35 PM 99.1 °F 102.6 °F 65.3 °F 33% 29.89 in 10.0 mi South 10.4 mph - N/A   Clear
4:55 PM 99.5 °F 102.6 °F 64.8 °F 32% 29.88 in 10.0 mi South 4.6 mph 18.4 mph N/A   Clear
5:15 PM 99.7 °F 102.9 °F 65.1 °F 32% 29.87 in 10.0 mi SSE 13.8 mph 18.4 mph N/A   Clear
5:35 PM 99.7 °F 102.9 °F 64.8 °F 32% 29.86 in 10.0 mi SSE 11.5 mph 18.4 mph N/A   Clear
5:55 PM 99.7 °F 102.3 °F 64.4 °F 31% 29.85 in 10.0 mi South 11.5 mph 18.4 mph N/A   Clear
6:15 PM 99.7 °F 102.3 °F 63.9 °F 31% 29.84 in 10.0 mi SE 17.3 mph - N/A   Clear
6:35 PM 97.7 °F 99.5 °F 63.3 °F 32% 29.84 in 10.0 mi SE 13.8 mph - N/A   Clear
6:55 PM 97.2 °F 99.6 °F 64.2 °F 34% 29.85 in 10.0 mi SE 12.7 mph 17.3 mph N/A   Clear
7:15 PM 97.2 °F 99.6 °F 64.8 °F 34% 29.84 in 10.0 mi SE 11.5 mph - N/A   Clear
7:35 PM 96.4 °F 98.9 °F 64.6 °F 35% 29.85 in 10.0 mi SE 12.7 mph 18.4 mph N/A   Clear
7:55 PM 94.8 °F 96.2 °F 63.5 °F 35% 29.85 in 10.0 mi SE 11.5 mph - N/A   Clear
8:15 PM 94.6 °F 95.9 °F 63.3 °F 35% 29.86 in 10.0 mi SE 11.5 mph - N/A   Clear
8:35 PM 94.6 °F 95.9 °F 63.1 °F 35% 29.85 in 10.0 mi SE 17.3 mph - N/A Thunderstorm Thunderstorm
8:55 PM 94.6 °F 96.4 °F 64.2 °F 36% 29.86 in 10.0 mi SE 17.3 mph - N/A   Clear
9:15 PM 93.7 °F 96.2 °F 65.1 °F 39% 29.87 in 10.0 mi SSE 9.2 mph - N/A   Clear
9:35 PM 91.9 °F 94.1 °F 65.1 °F 41% 29.88 in 10.0 mi SSE 10.4 mph - N/A   Clear
9:55 PM 92.3 °F 94.3 °F 64.6 °F 40% 29.89 in 10.0 mi SSE 12.7 mph - N/A   Clear
10:15 PM 90.9 °F 93.1 °F 65.7 °F 43% 29.89 in 10.0 mi SSE 9.2 mph 17.3 mph N/A   Clear
10:35 PM 89.6 °F 92.6 °F 66.9 °F 47% 29.89 in 10.0 mi SSE 12.7 mph - N/A   Clear
10:55 PM 89.6 °F 91.8 °F 65.7 °F 45% 29.89 in 10.0 mi SSE 13.8 mph 20.7 mph N/A   Clear
11:15 PM 89.6 °F 91.5 °F 64.9 °F 44% 29.89 in 10.0 mi SSE 12.7 mph 20.7 mph N/A   Clear
11:35 PM 89.6 °F 91.8 °F 65.7 °F 45% 29.88 in 10.0 mi SSE 17.3 mph 24.2 mph N/A   Clear
11:55 PM 89.6 °F 91.8 °F 65.8 °F 45% 29.88 in 10.0 mi SSE 16.1 mph 24.2 mph N/A   Clear